Regional Weather Roundup
Issued by NWS

Home | Current Version | Previous Version | Graphics & Text | Print | Product List | Glossary On
Versions: 1 2 3 4 5 6 7 8 9 10 11 12 13 14 15 16 17 18 19 20 21 22 23 24 25 26 27 28 29 30 31 32 33 34 35 36 37 38 39 40 41 42 43 44 45 46 47 48 49 50
000
ASUS45 KBOI 230510
RWRID
WEATHER ROUNDUP FOR IDAHO
NATIONAL WEATHER SERVICE BOISE ID
1100 PM MDT FRI AUG 22 2014

NOTE: "FAIR" INDICATES FEW OR NO CLOUDS BELOW 12000 FEET
WITH NO SIGNIFICANT WEATHER AND/OR OBSTRUCTIONS TO VISIBILITY

IDZ012-014-230600-
SOUTHWEST IDAHO


CITY           SKY/WX    TMP DP  RH WIND       PRES   REMARKS
BOISE          PTCLDY    66  41  40 NW10      29.93R
CALDWELL       PTCLDY    63  37  39 NW9       29.97R
MOUNTAIN HOME  PTCLDY    62  45  55 S14G24    29.96R
$$

IDZ016-017-230600-
SOUTHCENTRAL IDAHO


CITY           SKY/WX    TMP DP  RH WIND       PRES   REMARKS
BURLEY         RAIN      51  48  89 E12       30.04F
JEROME         CLOUDY    53  49  86 E12       29.99F
TWIN FALLS     CLOUDY    53  47  79 E8        30.00F
$$

IDZ019>023-230600-
SOUTHEAST IDAHO


CITY           SKY/WX    TMP DP  RH WIND       PRES   REMARKS
IDAHO FALLS    CLOUDY    51  50  96 NW6       30.04F
POCATELLO      CLOUDY    53  51  93 S6        30.06R
REXBURG        CLOUDY    54  49  83 NE3       30.04S
$$

IDZ006-010-011-018-031-032-230600-
CENTRAL IDAHO MOUNTAINS


CITY           SKY/WX    TMP DP  RH WIND       PRES   REMARKS
MCCALL         MOCLDY    49  43  80 SE3       30.06R
HAILEY         CLOUDY    50  45  81 NW9       30.05R
STANLEY          N/A     40  39  97 CALM      30.13R
SALMON         CLOUDY    57  43  58 CALM      30.05R
CHALLIS        MOCLDY    47  44  90 CALM      30.08S
$$

IDZ002-004-006-007-026-230600-
NORTHERN IDAHO


CITY           SKY/WX    TMP DP  RH WIND       PRES   REMARKS
LEWISTON       CLOUDY    62  56  80 SE6       30.02S
LOWELL           N/A     57  56  96 CALM      30.07R
COEUR D`ALENE  CLOUDY    61  48  63 N10       30.08R
MULLAN PASS    CLOUDY    46  43  89 VRB3      30.16S
$$



USA.gov is the U.S. government's official web portal to all federal, state and local government web resources and services.